Time,TemperatureF,DewpointF,PressureIn,WindDirection,WindDirectionDegrees,WindSpeedMPH,WindSpeedGustMPH,Humidity,HourlyPrecipIn,Conditions,Clouds,dailyrainin,SolarRadiationWatts/m^2,SoftwareType,DateUTC
2013-10-19 00:10:00,50.9,50.0,30.02,ESE,116,0.0,1.0,95,0.00,,,0.00,0,weatherlink.com 1.10,2013-10-19 07:10:00,
2013-10-19 00:25:00,51.2,50.0,30.02,ESE,121,0.0,1.0,95,0.00,,,0.00,0,weatherlink.com 1.10,2013-10-19 07:25:00,
2013-10-19 00:40:00,51.3,50.0,30.02,SE,132,0.0,1.0,95,0.00,,,0.00,0,weatherlink.com 1.10,2013-10-19 07:40:00,
2013-10-19 00:55:00,51.6,50.0,30.02,ESE,111,0.0,1.0,95,0.00,,,0.00,0,weatherlink.com 1.10,2013-10-19 07:55:00,
2013-10-19 01:25:00,52.0,50.0,30.03,SE,135,0.0,1.0,94,0.00,,,0.00,0,weatherlink.com 1.10,2013-10-19 08:25:00,
2013-10-19 01:40:00,51.9,51.0,30.03,SE,126,0.0,2.0,95,0.00,,,0.00,0,weatherlink.com 1.10,2013-10-19 08:40:00,
2013-10-19 01:55:00,51.8,51.0,30.03,SE,145,2.0,2.0,95,0.00,,,0.00,0,weatherlink.com 1.10,2013-10-19 08:55:00,
2013-10-19 02:10:00,51.5,50.0,30.03,SE,132,1.0,2.0,95,0.00,,,0.00,0,weatherlink.com 1.10,2013-10-19 09:10:00,
2013-10-19 02:25:00,51.3,50.0,30.03,SE,137,0.0,3.0,96,0.00,,,0.00,0,weatherlink.com 1.10,2013-10-19 09:25:00,
2013-10-19 02:40:00,51.3,50.0,30.03,SE,133,0.0,2.0,96,0.00,,,0.00,0,weatherlink.com 1.10,2013-10-19 09:40:00,
2013-10-19 02:55:00,50.9,50.0,30.03,ESE,121,0.0,0.0,96,0.00,,,0.00,0,weatherlink.com 1.10,2013-10-19 09:55:00,
2013-10-19 03:10:00,50.5,49.0,30.03,ESE,121,0.0,0.0,96,0.00,,,0.00,0,weatherlink.com 1.10,2013-10-19 10:10:00,
2013-10-19 03:25:00,50.3,49.0,30.03,ESE,121,0.0,0.0,96,0.00,,,0.00,0,weatherlink.com 1.10,2013-10-19 10:25:00,
2013-10-19 03:40:00,49.9,49.0,30.02,ESE,120,0.0,0.0,96,0.00,,,0.00,0,weatherlink.com 1.10,2013-10-19 10:40:00,
2013-10-19 03:55:00,49.5,48.0,30.03,ESE,119,0.0,0.0,96,0.00,,,0.00,0,weatherlink.com 1.10,2013-10-19 10:55:00,
2013-10-19 04:10:00,48.5,47.0,30.03,ESE,120,0.0,0.0,95,0.00,,,0.00,0,weatherlink.com 1.10,2013-10-19 11:10:00,
2013-10-19 04:25:00,48.2,47.0,30.03,ESE,119,0.0,0.0,96,0.00,,,0.00,0,weatherlink.com 1.10,2013-10-19 11:25:00,
2013-10-19 04:40:00,49.1,48.0,30.03,ESE,120,0.0,0.0,97,0.00,,,0.00,0,weatherlink.com 1.10,2013-10-19 11:40:00,
2013-10-19 04:55:00,49.6,49.0,30.03,ESE,106,0.0,1.0,96,0.00,,,0.00,0,weatherlink.com 1.10,2013-10-19 11:55:00,
2013-10-19 05:10:00,49.2,48.0,30.03,ESE,106,0.0,0.0,94,0.00,,,0.00,0,weatherlink.com 1.10,2013-10-19 12:10:00,
2013-10-19 05:25:00,49.0,47.0,30.04,ESE,106,0.0,0.0,92,0.00,,,0.00,0,weatherlink.com 1.10,2013-10-19 12:25:00,
2013-10-19 05:41:00,49.4,47.0,30.03,ESE,106,0.0,0.0,92,0.00,,,0.00,0,weatherlink.com 1.10,2013-10-19 12:41:00,
2013-10-19 05:56:00,50.0,48.0,30.04,ESE,106,0.0,1.0,93,0.01,,,0.01,0,weatherlink.com 1.10,2013-10-19 12:56:00,
2013-10-19 06:11:00,50.1,49.0,30.04,ESE,106,0.0,0.0,94,0.01,,,0.01,0,weatherlink.com 1.10,2013-10-19 13:11:00,
2013-10-19 06:26:00,49.5,48.0,30.04,East,93,0.0,1.0,93,0.01,,,0.01,0,weatherlink.com 1.10,2013-10-19 13:26:00,
2013-10-19 06:41:00,49.5,48.0,30.04,East,94,0.0,0.0,94,0.01,,,0.01,0,weatherlink.com 1.10,2013-10-19 13:41:00,
2013-10-19 06:56:00,50.0,49.0,30.04,East,94,0.0,0.0,95,0.00,,,0.01,0,weatherlink.com 1.10,2013-10-19 13:56:00,
2013-10-19 07:11:00,50.4,49.0,30.05,East,94,0.0,1.0,95,0.00,,,0.01,0,weatherlink.com 1.10,2013-10-19 14:11:00,
2013-10-19 07:26:00,49.8,49.0,30.05,East,93,0.0,0.0,95,0.00,,,0.01,0,weatherlink.com 1.10,2013-10-19 14:26:00,
2013-10-19 07:41:00,49.6,48.0,30.05,ENE,74,0.0,1.0,95,0.00,,,0.01,0,weatherlink.com 1.10,2013-10-19 14:41:00,
2013-10-19 07:56:00,49.7,48.0,30.05,ENE,74,0.0,0.0,95,0.00,,,0.01,0,weatherlink.com 1.10,2013-10-19 14:56:00,
2013-10-19 08:11:00,50.9,50.0,30.06,ENE,74,0.0,0.0,97,0.00,,,0.01,0,weatherlink.com 1.10,2013-10-19 15:11:00,
2013-10-19 08:26:00,52.8,52.0,30.06,ENE,74,0.0,0.0,95,0.00,,,0.01,0,weatherlink.com 1.10,2013-10-19 15:26:00,
2013-10-19 08:41:00,55.0,53.0,30.07,ENE,76,0.0,0.0,93,0.00,,,0.01,0,weatherlink.com 1.10,2013-10-19 15:41:00,
2013-10-19 08:56:00,55.9,53.0,30.07,ESE,119,0.0,0.0,90,0.00,,,0.01,0,weatherlink.com 1.10,2013-10-19 15:56:00,
2013-10-19 09:11:00,56.5,53.0,30.07,ESE,123,0.0,1.0,88,0.00,,,0.01,0,weatherlink.com 1.10,2013-10-19 16:11:00,
2013-10-19 09:26:00,58.6,55.0,30.07,SE,126,0.0,0.0,89,0.00,,,0.01,0,weatherlink.com 1.10,2013-10-19 16:26:00,
2013-10-19 09:41:00,58.7,54.0,30.08,WSW,257,0.0,0.0,84,0.00,,,0.01,0,weatherlink.com 1.10,2013-10-19 16:41:00,
2013-10-19 09:56:00,60.1,54.0,30.07,NW,306,0.0,1.0,80,0.00,,,0.01,0,weatherlink.com 1.10,2013-10-19 16:56:00,
2013-10-19 10:11:00,61.1,53.0,30.07,West,273,0.0,1.0,75,0.00,,,0.01,0,weatherlink.com 1.10,2013-10-19 17:11:00,
2013-10-19 10:26:00,62.7,54.0,30.07,NW,307,0.0,1.0,72,0.00,,,0.01,0,weatherlink.com 1.10,2013-10-19 17:26:00,
2013-10-19 10:41:00,64.1,55.0,30.07,East,90,0.0,2.0,73,0.00,,,0.01,0,weatherlink.com 1.10,2013-10-19 17:41:00,
2013-10-19 10:56:00,64.7,55.0,30.07,West,264,0.0,3.0,71,0.00,,,0.01,0,weatherlink.com 1.10,2013-10-19 17:56:00,
2013-10-19 11:11:00,66.2,55.0,30.07,West,271,0.0,2.0,67,0.00,,,0.01,0,weatherlink.com 1.10,2013-10-19 18:11:00,
2013-10-19 11:26:00,66.9,55.0,30.06,West,276,0.0,2.0,66,0.00,,,0.01,0,weatherlink.com 1.10,2013-10-19 18:26:00,
2013-10-19 11:41:00,67.9,54.0,30.06,NE,42,0.0,2.0,62,0.00,,,0.01,0,weatherlink.com 1.10,2013-10-19 18:41:00,
2013-10-19 11:56:00,69.4,55.0,30.06,West,271,0.0,2.0,60,0.00,,,0.01,0,weatherlink.com 1.10,2013-10-19 18:56:00,
2013-10-19 12:11:00,71.3,54.0,30.05,West,261,1.0,2.0,55,0.00,,,0.01,0,weatherlink.com 1.10,2013-10-19 19:11:00,
2013-10-19 12:27:00,72.5,55.0,30.05,WSW,246,0.0,2.0,54,0.00,,,0.01,0,weatherlink.com 1.10,2013-10-19 19:27:00,
2013-10-19 12:42:00,74.0,54.0,30.05,NNW,328,0.0,1.0,50,0.00,,,0.01,0,weatherlink.com 1.10,2013-10-19 19:42:00,
2013-10-19 12:57:00,75.6,54.0,30.04,SSW,198,1.0,3.0,47,0.00,,,0.01,0,weatherlink.com 1.10,2013-10-19 19:57:00,
2013-10-19 13:12:00,76.0,54.0,30.03,SSW,210,0.0,2.0,47,0.00,,,0.01,0,weatherlink.com 1.10,2013-10-19 20:12:00,
2013-10-19 13:27:00,76.2,53.0,30.02,SW,217,0.0,3.0,45,0.00,,,0.01,0,weatherlink.com 1.10,2013-10-19 20:27:00,
2013-10-19 13:42:00,77.3,54.0,30.02,SSW,199,0.0,2.0,44,0.00,,,0.01,0,weatherlink.com 1.10,2013-10-19 20:42:00,
2013-10-19 13:57:00,78.0,52.0,30.02,South,190,0.0,4.0,41,0.00,,,0.01,0,weatherlink.com 1.10,2013-10-19 20:57:00,
2013-10-19 14:12:00,77.6,53.0,30.01,SSE,157,3.0,4.0,43,0.00,,,0.01,0,weatherlink.com 1.10,2013-10-19 21:12:00,
2013-10-19 14:27:00,77.2,53.0,30.01,SSE,159,1.0,4.0,43,0.00,,,0.01,0,weatherlink.com 1.10,2013-10-19 21:27:00,
2013-10-19 14:42:00,76.6,54.0,30.00,SE,134,1.0,4.0,45,0.00,,,0.01,0,weatherlink.com 1.10,2013-10-19 21:42:00,
2013-10-19 14:57:00,76.3,52.0,30.00,South,190,2.0,3.0,43,0.00,,,0.01,0,weatherlink.com 1.10,2013-10-19 21:57:00,
2013-10-19 15:12:00,76.3,53.0,30.00,SW,217,0.0,3.0,44,0.00,,,0.01,0,weatherlink.com 1.10,2013-10-19 22:12:00,
2013-10-19 15:27:00,75.9,54.0,30.00,SSE,163,2.0,4.0,46,0.00,,,0.01,0,weatherlink.com 1.10,2013-10-19 22:27:00,
2013-10-19 15:42:00,75.9,54.0,30.00,SE,134,0.0,3.0,47,0.00,,,0.01,0,weatherlink.com 1.10,2013-10-19 22:42:00,
2013-10-19 15:57:00,76.1,55.0,29.99,SSE,165,1.0,3.0,48,0.00,,,0.01,0,weatherlink.com 1.10,2013-10-19 22:57:00,
2013-10-19 16:12:00,74.2,55.0,29.99,South,184,1.0,3.0,51,0.00,,,0.01,0,weatherlink.com 1.10,2013-10-19 23:12:00,
2013-10-19 16:27:00,73.1,55.0,29.99,SSW,206,1.0,4.0,53,0.00,,,0.01,0,weatherlink.com 1.10,2013-10-19 23:27:00,
2013-10-19 16:42:00,73.3,56.0,29.99,SE,125,0.0,3.0,54,0.00,,,0.01,0,weatherlink.com 1.10,2013-10-19 23:42:00,
2013-10-19 16:57:00,72.6,55.0,29.99,ESE,113,2.0,4.0,54,0.00,,,0.01,0,weatherlink.com 1.10,2013-10-19 23:57:00,
2013-10-19 17:12:00,70.4,54.0,29.99,ESE,107,4.0,6.0,57,0.00,,,0.01,0,weatherlink.com 1.10,2013-10-20 00:12:00,
2013-10-19 17:27:00,67.7,55.0,29.99,ESE,123,3.0,6.0,63,0.00,,,0.01,0,weatherlink.com 1.10,2013-10-20 00:27:00,
2013-10-19 17:42:00,66.0,54.0,29.99,SE,134,2.0,7.0,66,0.00,,,0.01,0,weatherlink.com 1.10,2013-10-20 00:42:00,
2013-10-19 17:57:00,64.1,54.0,29.99,ESE,117,5.0,9.0,69,0.00,,,0.01,0,weatherlink.com 1.10,2013-10-20 00:57:00,
2013-10-19 18:12:00,62.4,53.0,29.99,ESE,117,5.0,7.0,71,0.00,,,0.01,0,weatherlink.com 1.10,2013-10-20 01:12:00,
2013-10-19 18:27:00,60.5,53.0,29.99,SE,133,4.0,7.0,75,0.00,,,0.01,0,weatherlink.com 1.10,2013-10-20 01:27:00,
2013-10-19 18:42:00,59.1,52.0,29.99,SE,131,2.0,5.0,78,0.00,,,0.01,0,weatherlink.com 1.10,2013-10-20 01:42:00,
2013-10-19 18:57:00,58.3,52.0,29.99,ESE,118,3.0,5.0,80,0.00,,,0.01,0,weatherlink.com 1.10,2013-10-20 01:57:00,
2013-10-19 19:12:00,57.6,52.0,30.00,SE,126,2.0,5.0,82,0.00,,,0.01,0,weatherlink.com 1.10,2013-10-20 02:12:00,
2013-10-19 19:27:00,57.0,52.0,30.00,SE,142,1.0,3.0,83,0.00,,,0.01,0,weatherlink.com 1.10,2013-10-20 02:27:00,
2013-10-19 19:42:00,56.5,52.0,30.00,ESE,114,2.0,3.0,84,0.00,,,0.01,0,weatherlink.com 1.10,2013-10-20 02:42:00,
2013-10-19 19:57:00,56.1,51.0,30.00,SE,142,0.0,2.0,84,0.00,,,0.01,0,weatherlink.com 1.10,2013-10-20 02:57:00,
2013-10-19 20:12:00,55.8,51.0,30.00,SE,133,2.0,3.0,85,0.00,,,0.01,0,weatherlink.com 1.10,2013-10-20 03:12:00,
2013-10-19 20:27:00,55.5,51.0,30.01,SSE,161,0.0,2.0,86,0.00,,,0.01,0,weatherlink.com 1.10,2013-10-20 03:27:00,
2013-10-19 20:42:00,55.5,52.0,30.02,ESE,115,3.0,5.0,87,0.00,,,0.01,0,weatherlink.com 1.10,2013-10-20 03:42:00,
2013-10-19 20:57:00,55.4,52.0,30.02,SE,142,2.0,7.0,88,0.00,,,0.01,0,weatherlink.com 1.10,2013-10-20 03:57:00,
2013-10-19 21:12:00,55.0,52.0,30.02,SE,145,3.0,7.0,89,0.00,,,0.01,0,weatherlink.com 1.10,2013-10-20 04:12:00,
2013-10-19 21:27:00,54.3,52.0,30.02,ESE,123,2.0,5.0,90,0.00,,,0.01,0,weatherlink.com 1.10,2013-10-20 04:27:00,
2013-10-19 21:42:00,53.8,51.0,30.02,SSE,165,1.0,3.0,91,0.00,,,0.01,0,weatherlink.com 1.10,2013-10-20 04:42:00,
2013-10-19 21:57:00,53.4,51.0,30.02,ESE,116,1.0,2.0,92,0.00,,,0.01,0,weatherlink.com 1.10,2013-10-20 04:57:00,
2013-10-19 22:13:00,53.1,51.0,30.02,ESE,110,1.0,7.0,92,0.00,,,0.01,0,weatherlink.com 1.10,2013-10-20 05:13:00,
2013-10-19 22:27:00,53.3,51.0,30.03,SE,138,2.0,5.0,93,0.00,,,0.01,0,weatherlink.com 1.10,2013-10-20 05:27:00,
2013-10-19 22:42:00,53.0,51.0,30.03,East,90,2.0,5.0,93,0.00,,,0.01,0,weatherlink.com 1.10,2013-10-20 05:42:00,
2013-10-19 22:57:00,52.6,51.0,30.02,ESE,103,3.0,6.0,93,0.00,,,0.01,0,weatherlink.com 1.10,2013-10-20 05:57:00,
2013-10-19 23:12:00,52.3,51.0,30.03,SE,134,4.0,8.0,94,0.00,,,0.01,0,weatherlink.com 1.10,2013-10-20 06:12:00,
2013-10-19 23:27:00,52.2,51.0,30.03,ESE,121,5.0,7.0,95,0.00,,,0.01,0,weatherlink.com 1.10,2013-10-20 06:27:00,
2013-10-19 23:42:00,52.2,51.0,30.03,ESE,123,4.0,8.0,95,0.00,,,0.01,0,weatherlink.com 1.10,2013-10-20 06:42:00,
2013-10-19 23:57:00,51.8,51.0,30.03,SE,136,1.0,5.0,95,0.00,,,0.01,0,weatherlink.com 1.10,2013-10-20 06:57:00,